Weather History for Toledo Metcalf, OH

Change the Weather History Date:

Saturday, December 29, 2012

  Actual Average (KTOL) Record (KTOL)
Temperature  
Mean Temperature 28 °F 27 °F  
Max Temperature 30 °F 33 °F 70 °F (1889)
Min Temperature 21 °F 20 °F -10 °F (1880)
Degree Days  
Heating Degree Days 38 38  
Month to date heating degree days 1014  
Since 1 July heating degree days 2247  
Cooling Degree Days 0 0  
Month to date cooling degree days 0  
Year to date cooling degree days 793  
Moisture  
Dew Point 26 °F    
Average Humidity 90    
Maximum Humidity 100    
Minimum Humidity 82    
Precipitation  
Precipitation 0.14 in 0.08 in 1.06 in (1990)
Month to date precipitation 2.52  
Year to date precipitation 34.08  
Snow  
Snow 0.00 in 0.40 in - ()
Month to date snowfall 6.8  
Since 1 July snowfall 8.9  
Snow Depth -    
Sea Level Pressure  
Sea Level Pressure 29.87 in    
Wind  
Wind Speed 6 mph (North)    
Max Wind Speed 12 mph    
Max Gust Speed -    
Visibility 3 miles    
Events Snow    
T = Trace of Precipitation, MM = Missing Value Source: NWS Daily Summary

Daily Weather History Graph

Daily Weather History Graph

Search for Another Location

Airport:

Trip Planner

Search our weather history database for the weather conditions in past years. The results will help you decide how hot, cold, wet, or windy it might be!

Date:

Astronomy

Dec. 29, 2012 Rise Set
Actual Time 8:00 AM EST 5:12 PM EST
Civil Twilight 7:28 AM EST 5:43 PM EST
Nautical Twilight 6:53 AM EST 6:18 PM EST
Astronomical Twilight 6:20 AM EST 6:52 PM EST
Moon 6:45 PM EST (12/29) 8:31 AM EST (12/29)
Length of Visible Light 10h 15m
Length of Day
9h 12m
Full, 98% of the Moon is Illuminated
Dec 29
Full
Jan 4
Last Quarter
Jan 11
New
Jan 18
First Quarter
Jan 26
Full

Hourly Weather History & Observations

Time (EST) Temp. Windchill Dew Point Humidity Pressure Visibility Wind Dir Wind Speed Gust Speed Precip Events Conditions
12:08 AM 28.4 °F 21.2 °F 24.8 °F 86% 29.91 in 2.0 mi ENE 6.9 mph - 0.00 in Snow Light Snow
12:15 AM 28.4 °F 22.2 °F 24.8 °F 86% 29.91 in 1.5 mi NE 5.8 mph - 0.00 in Snow Light Snow
12:29 AM 28.4 °F 22.2 °F 24.8 °F 86% 29.90 in 2.5 mi ENE 5.8 mph - 0.00 in Snow Light Snow
12:42 AM 28.4 °F 23.3 °F 24.8 °F 86% 29.90 in 1.2 mi ENE 4.6 mph - 0.00 in Snow Light Snow
12:53 AM 28.0 °F 24.2 °F 24.1 °F 85% 29.92 in 1.2 mi East 3.5 mph - 0.01 in Snow Light Snow
1:07 AM 28.4 °F 24.6 °F 24.8 °F 86% 29.90 in 1.0 mi NE 3.5 mph - 0.00 in Snow Light Snow
1:53 AM 28.0 °F 22.8 °F 26.1 °F 92% 29.88 in 1.0 mi ENE 4.6 mph - 0.03 in Snow Light Snow
2:08 AM 28.4 °F 23.3 °F 26.6 °F 93% 29.87 in 0.8 mi ENE 4.6 mph - 0.02 in Snow Light Snow
2:26 AM 28.4 °F 22.2 °F 26.6 °F 93% 29.86 in 1.0 mi ENE 5.8 mph - 0.03 in Snow Light Snow
2:33 AM 28.4 °F 22.2 °F 26.6 °F 93% 29.85 in 1.2 mi ENE 5.8 mph - 0.03 in Snow Light Snow
2:45 AM 28.4 °F 22.2 °F 26.6 °F 93% 29.85 in 1.0 mi ENE 5.8 mph - 0.04 in Snow Light Snow
2:53 AM 28.9 °F 22.8 °F 27.0 °F 92% 29.88 in 0.8 mi ENE 5.8 mph - 0.05 in Snow Light Snow
3:01 AM 28.4 °F 23.3 °F 26.6 °F 93% 29.85 in 1.0 mi ENE 4.6 mph - 0.00 in Snow Light Snow
3:11 AM 28.4 °F 22.2 °F 26.6 °F 93% 29.85 in 1.2 mi ENE 5.8 mph - 0.01 in Snow Light Snow
3:23 AM 28.4 °F 22.2 °F 26.6 °F 93% 29.84 in 2.0 mi ENE 5.8 mph - 0.01 in Snow Light Snow
3:53 AM 28.9 °F 22.8 °F 27.0 °F 92% 29.86 in 2.0 mi East 5.8 mph - 0.01 in Snow Light Snow
3:56 AM 28.4 °F 21.2 °F 26.6 °F 93% 29.84 in 1.8 mi East 6.9 mph - 0.00 in Snow Light Snow
4:10 AM 28.4 °F 22.2 °F 26.6 °F 93% 29.83 in 1.2 mi East 5.8 mph - 0.01 in Snow Light Snow
4:24 AM 28.4 °F 22.2 °F 26.6 °F 93% 29.82 in 1.5 mi East 5.8 mph - 0.01 in Snow Light Snow
4:53 AM 28.9 °F 22.8 °F 27.0 °F 92% 29.83 in 1.5 mi ENE 5.8 mph - 0.02 in Snow Light Snow
5:14 AM 28.4 °F 22.2 °F 28.4 °F 100% 29.80 in 1.2 mi NE 5.8 mph - 0.00 in Snow Light Snow
5:24 AM 28.4 °F 23.3 °F 28.4 °F 100% 29.79 in 1.5 mi NE 4.6 mph - 0.01 in Snow Light Snow
5:38 AM 30.2 °F 26.7 °F 28.4 °F 93% 29.80 in 2.0 mi NE 3.5 mph - 0.01 in Snow Light Snow
5:53 AM 30.0 °F 25.2 °F 27.0 °F 88% 29.81 in 1.8 mi NE 4.6 mph - 0.01 in Snow Light Snow
6:15 AM 30.2 °F 25.4 °F 28.4 °F 93% 29.79 in 2.0 mi NE 4.6 mph - 0.00 in Snow Light Snow
6:27 AM 30.2 °F 25.4 °F 28.4 °F 93% 29.79 in 2.5 mi NE 4.6 mph - 0.00 in Snow Light Snow
6:35 AM 30.2 °F 25.4 °F 28.4 °F 93% 29.79 in 3.0 mi NE 4.6 mph - 0.00 in Snow Light Snow
6:43 AM 30.2 °F 25.4 °F 28.4 °F 93% 29.79 in 2.5 mi NE 4.6 mph - 0.00 in Snow Light Snow
6:51 AM 30.2 °F 24.3 °F 28.4 °F 93% 29.79 in 2.5 mi NNE 5.8 mph - 0.00 in Snow Light Snow
6:53 AM 30.0 °F 25.2 °F 28.0 °F 92% 29.81 in 2.5 mi NNE 4.6 mph - 0.00 in Snow Light Snow
7:53 AM 30.0 °F 21.7 °F 28.0 °F 92% 29.81 in 1.8 mi NNE 9.2 mph - 0.01 in Snow Light Snow
8:53 AM 28.9 °F 21.1 °F 27.0 °F 92% 29.81 in 1.8 mi North 8.1 mph - 0.00 in Snow Light Snow
9:42 AM 28.4 °F 22.2 °F 26.6 °F 93% 29.80 in 2.0 mi North 5.8 mph - 0.00 in Snow Light Snow
9:53 AM 28.9 °F 21.1 °F 26.1 °F 89% 29.83 in 2.5 mi NNW 8.1 mph - 0.00 in Snow Light Snow
10:20 AM 28.4 °F 19.1 °F 24.8 °F 86% 29.83 in 3.0 mi NNW 10.4 mph - 0.00 in Snow Light Snow
10:38 AM 30.2 °F 21.9 °F 26.6 °F 86% 29.83 in 4.0 mi North 9.2 mph - 0.00 in   Overcast
10:53 AM 30.0 °F 21.7 °F 26.1 °F 85% 29.85 in 4.0 mi North 9.2 mph - 0.00 in   Overcast
11:53 AM 30.0 °F 23.2 °F 26.1 °F 85% 29.86 in 7.0 mi NNW 6.9 mph - N/A   Overcast
12:53 PM 30.0 °F 24.1 °F 26.1 °F 85% 29.85 in 5.0 mi NW 5.8 mph - 0.00 in Snow Light Snow
1:14 PM 30.2 °F 24.3 °F 26.6 °F 86% 29.83 in 5.0 mi NW 5.8 mph - 0.00 in Snow Light Snow
1:27 PM 30.2 °F 21.9 °F 26.6 °F 86% 29.83 in 6.0 mi NW 9.2 mph - 0.00 in Snow Light Snow
1:53 PM 30.9 °F 23.5 °F 26.1 °F 82% 29.86 in 8.0 mi NW 8.1 mph - 0.00 in   Overcast
2:37 PM 30.2 °F 21.9 °F 26.6 °F 86% 29.85 in 4.0 mi NW 9.2 mph - 0.00 in Snow Light Snow
2:53 PM 30.0 °F 20.5 °F 26.1 °F 85% 29.88 in 4.0 mi NW 11.5 mph - 0.00 in Snow Light Snow
3:05 PM 30.2 °F 21.3 °F 26.6 °F 86% 29.86 in 4.0 mi NW 10.4 mph - 0.00 in Snow Light Snow
3:53 PM 30.0 °F 21.7 °F 26.1 °F 85% 29.89 in 3.0 mi WNW 9.2 mph - 0.00 in Snow Light Snow
4:26 PM 30.2 °F 22.6 °F 26.6 °F 86% 29.89 in 2.0 mi WNW 8.1 mph - 0.00 in Snow Light Snow
4:53 PM 28.9 °F 19.8 °F 26.1 °F 89% 29.93 in 2.0 mi West 10.4 mph - 0.00 in Snow Light Snow
5:01 PM 28.4 °F 19.7 °F 26.6 °F 93% 29.91 in 1.8 mi WNW 9.2 mph - 0.00 in Snow Light Snow
5:24 PM 28.4 °F 20.4 °F 26.6 °F 93% 29.92 in 2.5 mi WNW 8.1 mph - 0.00 in Snow Light Snow
5:37 PM 28.4 °F 19.7 °F 26.6 °F 93% 29.93 in 2.0 mi WNW 9.2 mph - 0.00 in Snow Light Snow
5:45 PM 28.4 °F 19.7 °F 26.6 °F 93% 29.93 in 2.5 mi WNW 9.2 mph - 0.00 in Snow Light Snow
5:53 PM 28.9 °F 21.1 °F 26.1 °F 89% 29.96 in 3.0 mi WNW 8.1 mph - 0.00 in Snow Light Snow
6:53 PM 28.9 °F 21.1 °F 26.1 °F 89% 29.98 in 5.0 mi WNW 8.1 mph - 0.00 in Snow Light Snow
7:53 PM 28.0 °F 18.1 °F 25.0 °F 88% 30.00 in 3.0 mi WNW 11.5 mph - 0.00 in Snow Light Snow
8:53 PM 27.0 °F 18.0 °F 24.1 °F 89% 30.02 in 8.0 mi WNW 9.2 mph - 0.00 in   Overcast
9:53 PM 25.0 °F 17.1 °F 21.0 °F 85% 30.05 in 10.0 mi West 6.9 mph - N/A   Overcast
10:53 PM 26.1 °F 17.6 °F 21.9 °F 84% 30.07 in 10.0 mi West 8.1 mph - N/A   Overcast
11:53 PM 21.9 °F 12.5 °F 19.0 °F 89% 30.11 in 10.0 mi West 8.1 mph - N/A   Clear